Fort Pierce, FL

5:58 PM EST on January 21, 2017 (GMT -0500)
Ft Pierce

Weather History for KFPR - May, 2013

Change the Weather History Date:

Saturday, May 11, 2013

  Actual Average Record
Temperature  
Mean Temperature 79 °F -  
Max Temperature 91 °F 84 °F 97 °F (2008)
Min Temperature 68 °F 66 °F 54 °F (1977)
Cooling Degree Days 14    
Growing Degree Days 29 (Base 50)    
Moisture  
Dew Point 68 °F    
Average Humidity 78    
Maximum Humidity 94    
Minimum Humidity 43    
Precipitation  
Precipitation 0.38 in - - ()
Sea Level Pressure  
Sea Level Pressure 30.03 in    
Wind  
Wind Speed 5 mph (SSW)    
Max Wind Speed 18 mph    
Max Gust Speed 22 mph    
Visibility 8 miles    
Events Fog , Rain , Thunderstorm    
Averages and records for this station are not official NWS values.
T = Trace of Precipitation, MM = Missing Value Source: NWS Daily Summary

Daily Weather History Graph

Daily Weather History Graph

Search for Another Location

Airport or City:

Trip Planner

Search our weather history database for the weather conditions in past years. The results will help you decide how hot, cold, wet, or windy it might be!

Date:

Astronomy

May. 11, 2013 Rise Set
Actual Time 6:34 AM EDT 8:01 PM EDT
Civil Twilight 6:09 AM EDT 8:26 PM EDT
Nautical Twilight 5:39 AM EDT 8:56 PM EDT
Astronomical Twilight 5:08 AM EDT 9:27 PM EDT
Moon 7:44 AM EDT (5/11) 9:37 PM EDT (5/11)
Length of Visible Light 14h 16m
Length of Day
13h 26m
Waxing Crescent, 3% of the Moon is Illuminated
May 11
Waxing Crescent
May 18
First Quarter
May 25
Full
May 31
Last Quarter
Jun 8
New

Hourly Weather History & Observations

Time (EDT) Temp. Heat Index Dew Point Humidity Pressure Visibility Wind Dir Wind Speed Gust Speed Precip Events Conditions
12:53 AM 75.0 °F - 68.0 °F 79% 30.07 in 10.0 mi South 3.5 mph - N/A   Overcast
1:53 AM 73.9 °F - 69.1 °F 85% 30.06 in 10.0 mi Calm Calm - N/A   Clear
2:53 AM 70.0 °F - 66.9 °F 90% 30.05 in 9.0 mi Calm Calm - N/A   Clear
3:53 AM 69.1 °F - 66.0 °F 90% 30.04 in 7.0 mi Calm Calm - N/A   Clear
4:53 AM 69.1 °F - 66.9 °F 93% 30.04 in 6.0 mi Calm Calm - N/A   Clear
5:53 AM 71.1 °F - 69.1 °F 93% 30.02 in 5.0 mi SSE 3.5 mph - N/A   Clear
6:39 AM 68.0 °F - 66.2 °F 94% 30.05 in 0.8 mi Calm Calm - N/A   Clear
6:43 AM 68.0 °F - 66.2 °F 94% 30.05 in 0.2 mi Calm Calm - N/A Fog Fog
6:53 AM 68.0 °F - 66.0 °F 93% 30.05 in 0.2 mi Calm Calm - N/A Fog Fog
7:03 AM 68.0 °F - 66.2 °F 94% 30.06 in 2.0 mi Calm Calm - N/A   Partly Cloudy
7:24 AM 69.8 °F - 68.0 °F 94% 30.06 in 3.0 mi Calm Calm - N/A   Scattered Clouds
7:53 AM 73.0 °F - 71.1 °F 93% 30.06 in 3.0 mi Calm Calm - N/A   Scattered Clouds
8:53 AM 79.0 °F - 72.0 °F 79% 30.07 in 10.0 mi South 9.2 mph - N/A   Partly Cloudy
9:53 AM 82.0 °F 86.3 °F 71.1 °F 69% 30.06 in 10.0 mi SSW 8.1 mph - N/A   Scattered Clouds
10:53 AM 86.0 °F 90.1 °F 69.1 °F 57% 30.06 in 10.0 mi SW 8.1 mph - N/A   Mostly Cloudy
11:53 AM 86.0 °F 88.8 °F 66.9 °F 53% 30.06 in 10.0 mi SW 9.2 mph - N/A   Partly Cloudy
12:53 PM 87.1 °F 89.9 °F 66.9 °F 51% 30.04 in 10.0 mi SSW 11.5 mph 18.4 mph N/A   Scattered Clouds
1:53 PM 90.0 °F 92.8 °F 66.9 °F 46% 30.03 in 10.0 mi WSW 8.1 mph 18.4 mph N/A   Scattered Clouds
2:53 PM 90.0 °F 92.4 °F 66.0 °F 45% 30.01 in 10.0 mi West 9.2 mph 17.3 mph N/A   Mostly Cloudy
3:53 PM 90.0 °F 91.7 °F 64.9 °F 43% 29.98 in 10.0 mi Variable 5.8 mph - N/A   Clear
4:17 PM 87.8 °F 93.8 °F 71.6 °F 58% 29.97 in 10.0 mi SE 18.4 mph - N/A   Clear
4:53 PM 88.0 °F 94.7 °F 72.0 °F 59% 29.96 in 10.0 mi SE 17.3 mph - N/A   Clear
5:53 PM 82.9 °F 88.8 °F 73.0 °F 72% 29.96 in 10.0 mi SE 15.0 mph - N/A   Partly Cloudy
6:02 PM 82.4 °F 88.2 °F 73.4 °F 74% 29.99 in 10.0 mi SSE 11.5 mph - N/A Thunderstorm Mostly Cloudy
6:33 PM 75.2 °F - 68.0 °F 78% 30.02 in 10.0 mi NW 11.5 mph 21.9 mph 0.00 in Rain , Thunderstorm Light Thunderstorms and Rain
6:53 PM 73.0 °F - 69.1 °F 87% 30.02 in 7.0 mi NW 6.9 mph - 0.00 in Rain , Thunderstorm Light Thunderstorms and Rain
7:27 PM 73.4 °F - 68.0 °F 83% 30.03 in 9.0 mi NW 10.4 mph - 0.01 in Rain Light Rain
7:53 PM 72.0 °F - 66.9 °F 84% 30.02 in 4.0 mi NNW 6.9 mph - 0.03 in Rain Rain
8:01 PM 71.6 °F - 68.0 °F 88% 30.06 in 8.0 mi South 13.8 mph 18.4 mph 0.01 in Rain , Thunderstorm Heavy Rain
8:53 PM 72.0 °F - 69.1 °F 91% - 8.0 mi SSW 8.1 mph - 0.27 in Rain , Thunderstorm Heavy Rain
9:53 PM 72.0 °F - 69.1 °F 91% - 10.0 mi ESE 6.9 mph - 0.08 in Rain , Thunderstorm Heavy Rain
10:53 PM 71.1 °F - 66.9 °F 87% - 10.0 mi Calm Calm - 0.00 in Rain , Thunderstorm Heavy Rain
11:53 PM 71.1 °F - 68.0 °F 90% - 10.0 mi South 3.5 mph - 0.00 in Rain , Thunderstorm Heavy Rain